GW5170 Weather Reports


time (UTC)temp
C
wind
direction
speed
KPH
gust
KPH
rain 1hr
cm
rain 24hr
cm
rain mn
cm
humidity
%
barometer
mb
20260506082304 2 337 1.6 1.6 0.00 0.00 0.00 84 1014.2
20260506081758 3 337 1.6 1.6 0.00 0.00 0.00 85 1014.3
20260506081256 3 335 1.6 1.6 0.00 0.00 0.00 85 1014.3
20260506080754 3 334 0.0 1.6 0.00 0.00 0.00 84 1014.4
20260506080250 3 334 0.0 1.6 0.00 0.00 0.00 83 1014.3
20260506073234 3 333 0.0 0.0 0.00 0.00 0.00 81 1014.0
20260506072731 3 332 0.0 0.0 0.00 0.00 0.00 81 1014.0
20260506072228 3 332 0.0 0.0 0.00 0.00 0.00 80 1013.9
20260506071726 3 333 0.0 0.0 0.00 0.00 0.00 80 1013.9
20260506071224 3 333 0.0 0.0 0.00 0.00 0.00 79 1013.6
20260506070720 3 333 0.0 1.6 0.00 0.00 0.00 79 1013.5
20260506070217 4 332 0.0 0.0 0.00 0.00 0.00 78 1013.4
20260506062154 5 336 0.0 0.0 0.00 0.00 0.00 70 1013.4
20260506061650 5 330 1.6 1.6 0.00 0.00 0.00 68 1013.5
20260506061148 6 324 1.6 1.6 0.00 0.00 0.00 68 1013.5
20260506060646 6 334 0.0 1.6 0.00 0.00 0.00 67 1013.2
20260506060143 6 334 0.0 1.6 0.00 0.00 0.00 65 1013.4
20260506051115 7 329 0.0 1.6 0.00 0.00 0.00 54 1013.3
20260506050613 8 326 1.6 1.6 0.00 0.00 0.00 53 1013.3
20260506050110 8 325 3.2 3.2 0.00 0.00 0.00 53 1013.2
20260506045103 8 328 1.6 1.6 0.00 0.00 0.00 53 1013.0
20260506044601 8 332 3.2 3.2 0.00 0.00 0.00 52 1013.1
20260506044058 8 337 1.6 1.6 0.00 0.00 0.00 52 1012.9
20260506043555 8 319 1.6 3.2 0.00 0.00 0.00 51 1012.8
20260506043053 8 341 3.2 3.2 0.00 0.00 0.00 51 1012.8
20260506042552 8 351 1.6 1.6 0.00 0.00 0.00 51 1012.8
20260506042049 8 359 3.2 4.8 0.00 0.00 0.00 51 1013.0
20260506041548 8 23 3.2 3.2 0.00 0.00 0.00 51 1013.1
20260506041044 8 350 3.2 4.8 0.00 0.00 0.00 51 1012.9
20260506040542 9 353 1.6 1.6 0.00 0.00 0.00 51 1013.1
20260506040038 9 20 3.2 3.2 0.00 0.00 0.00 51 1013.1
20260506035535 9 344 3.2 3.2 0.00 0.00 0.00 50 1013.0
20260506035032 9 325 1.6 1.6 0.00 0.00 0.00 49 1013.2
20260506034529 9 325 3.2 4.8 0.00 0.00 0.00 49 1012.9
20260506034026 9 330 3.2 4.8 0.00 0.00 0.00 50 1012.9
20260506033523 9 358 1.6 1.6 0.00 0.00 0.00 49 1012.9
20260506033021 10 334 1.6 3.2 0.00 0.00 0.00 49 1012.7
20260506032518 10 336 4.8 6.4 0.00 0.00 0.00 48 1012.8
20260506032014 10 331 1.6 3.2 0.00 0.00 0.00 48 1012.6
20260506031512 10 345 0.0 1.6 0.00 0.00 0.00 47 1012.7
20260506031009 10 322 3.2 3.2 0.00 0.00 0.00 47 1012.6
20260506030507 10 347 3.2 4.8 0.00 0.00 0.00 47 1012.6
20260506030004 10 19 1.6 1.6 0.00 0.00 0.00 47 1012.5
20260506025500 10 345 1.6 1.6 0.00 0.00 0.00 46 1012.4
20260506024957 10 18 1.6 1.6 0.00 0.00 0.00 46 1012.4
20260506024454 10 357 3.2 4.8 0.00 0.00 0.00 45 1012.3
20260506023949 10 344 3.2 3.2 0.00 0.00 0.00 45 1012.1
20260506023447 10 317 8.0 11.3 0.00 0.00 0.00 45 1012.2
20260506022943 10 345 3.2 4.8 0.00 0.00 0.00 45 1011.9
20260506022441 10 12 1.6 3.2 0.00 0.00 0.00 45 1012.0
20260506021939 11 347 3.2 3.2 0.00 0.00 0.00 45 1011.7
20260506021436 11 351 3.2 3.2 0.00 0.00 0.00 44 1011.7
20260506020933 11 352 4.8 4.8 0.00 0.00 0.00 43 1011.6
20260506020431 11 353 4.8 6.4 0.00 0.00 0.00 43 1011.6
20260506015927 11 19 6.4 6.4 0.00 0.00 0.00 43 1011.4
20260506015425 11 356 3.2 3.2 0.00 0.00 0.00 43 1011.2
20260506014922 11 11 6.4 6.4 0.00 0.00 0.00 43 1011.1
20260506014419 11 334 3.2 3.2 0.00 0.00 0.00 43 1011.1
20260506013915 11 345 3.2 3.2 0.00 0.00 0.00 42 1011.0
20260506013414 11 11 3.2 3.2 0.00 0.00 0.00 42 1010.9
20260506012909 11 335 1.6 3.2 0.00 0.00 0.00 42 1010.8
20260506012406 11 352 3.2 3.2 0.00 0.00 0.00 41 1010.8
20260506011903 11 14 3.2 4.8 0.00 0.00 0.00 41 1010.8
20260506011400 12 355 3.2 3.2 0.00 0.00 0.00 41 1010.6
20260506010857 12 355 1.6 1.6 0.00 0.00 0.00 40 1010.9
20260506010355 12 326 1.6 3.2 0.00 0.00 0.00 40 1010.7
20260506005852 12 328 1.6 1.6 0.00 0.00 0.00 39 1010.8
20260506005349 12 5 6.4 6.4 0.00 0.00 0.00 38 1010.6
20260506004844 12 8 8.0 11.3 0.00 0.00 0.00 38 1010.4
20260506004343 12 341 9.7 14.5 0.00 0.00 0.00 38 1010.4
20260506003838 12 346 9.7 11.3 0.00 0.00 0.00 38 1010.2
20260506003335 13 350 12.9 16.1 0.00 0.00 0.00 37 1010.3
20260506002831 13 345 8.0 12.9 0.00 0.00 0.00 37 1010.2
20260506002328 13 298 6.4 9.7 0.00 0.00 0.00 36 1009.8
20260506001823 13 331 4.8 4.8 0.00 0.00 0.00 36 1009.9
20260506001321 13 346 3.2 4.8 0.00 0.00 0.00 35 1010.1
20260506000818 13 299 6.4 6.4 0.00 0.00 0.00 35 1010.0
20260506000316 13 298 9.7 11.3 0.00 0.00 0.00 34 1010.0
20260505235812 14 357 6.4 9.7 0.00 0.00 0.00 34 1009.9
20260505235310 14 320 8.0 9.7 0.00 0.00 0.00 34 1009.8
20260505234806 14 260 3.2 4.8 0.00 0.00 0.00 33 1009.6
20260505234304 14 340 6.4 6.4 0.00 0.00 0.00 33 1009.7
20260505233801 14 318 6.4 6.4 0.00 0.00 0.00 33 1009.6
20260505233259 15 324 6.4 9.7 0.00 0.00 0.00 34 1009.7
20260505232755 14 295 6.4 9.7 0.00 0.00 0.00 34 1009.9
20260505232253 14 355 6.4 9.7 0.00 0.00 0.00 33 1009.7
20260505231749 14 336 6.4 9.7 0.00 0.00 0.00 33 1009.6
20260505231248 14 301 6.4 6.4 0.00 0.00 0.00 33 1009.8
20260505230746 14 323 9.7 12.9 0.00 0.00 0.00 34 1009.8
20260505230242 14 349 6.4 6.4 0.00 0.00 0.00 33 1009.9
20260505225739 14 307 9.7 11.3 0.00 0.00 0.00 34 1009.9
20260505225236 14 327 4.8 6.4 0.00 0.00 0.00 34 1009.8
20260505224731 14 334 4.8 4.8 0.00 0.00 0.00 33 1010.0
20260505224229 14 278 4.8 6.4 0.00 0.00 0.00 33 1009.8
20260505223727 14 279 4.8 6.4 0.00 0.00 0.00 33 1010.0
20260505223223 14 307 9.7 11.3 0.00 0.00 0.00 32 1010.0
20260505222719 14 309 3.2 4.8 0.00 0.00 0.00 32 1010.1
20260505222215 14 274 4.8 6.4 0.00 0.00 0.00 32 1010.0
20260505221713 14 347 4.8 4.8 0.00 0.00 0.00 32 1010.1
20260505221209 14 293 9.7 16.1 0.00 0.00 0.00 31 1010.2
20260505220706 14 313 11.3 12.9 0.00 0.00 0.00 32 1010.1
20260505220204 14 254 8.0 9.7 0.00 0.00 0.00 32 1010.3
20260505215701 14 321 6.4 9.7 0.00 0.00 0.00 32 1010.3
20260505215159 14 323 4.8 4.8 0.00 0.00 0.00 31 1010.3
20260505214657 14 355 3.2 4.8 0.00 0.00 0.00 31 1010.2
20260505214154 14 337 4.8 6.4 0.00 0.00 0.00 31 1010.3
20260505213651 14 293 9.7 11.3 0.00 0.00 0.00 32 1010.3
20260505213148 13 324 12.9 16.1 0.00 0.00 0.00 31 1010.4
20260505212644 14 345 9.7 14.5 0.00 0.00 0.00 32 1010.3
20260505212142 14 344 12.9 14.5 0.00 0.00 0.00 32 1010.6
20260505211638 14 328 11.3 12.9 0.00 0.00 0.00 32 1010.6
20260505211136 13 320 9.7 11.3 0.00 0.00 0.00 32 1010.5
20260505210632 14 292 12.9 17.7 0.00 0.00 0.00 33 1010.4
20260505210129 14 349 9.7 12.9 0.00 0.00 0.00 33 1010.4
20260505205626 14 336 12.9 14.5 0.00 0.00 0.00 32 1010.6
20260505205125 13 281 8.0 11.3 0.00 0.00 0.00 32 1010.7
20260505204621 15 311 8.0 11.3 0.00 0.00 0.00 31 1010.5
20260505204119 14 340 3.2 3.2 0.00 0.00 0.00 32 1010.4
20260505203615 14 303 14.5 20.9 0.00 0.00 0.00 31 1010.4
20260505203113 15 268 14.5 20.9 0.00 0.00 0.00 31 1010.5
20260505202608 15 313 8.0 14.5 0.00 0.00 0.00 31 1010.6
20260505202104 14 328 3.2 4.8 0.00 0.00 0.00 31 1010.8
20260505201601 14 340 11.3 14.5 0.00 0.00 0.00 32 1010.6
20260505201059 15 214 6.4 6.4 0.00 0.00 0.00 30 1010.9
20260505200557 15 330 11.3 12.9 0.00 0.00 0.00 31 1010.9
20260505200053 14 311 4.8 6.4 0.00 0.00 0.00 31 1010.9
20260505195549 13 312 6.4 6.4 0.00 0.00 0.00 31 1010.9
20260505195047 14 351 4.8 6.4 0.00 0.00 0.00 32 1011.0
20260505194544 13 318 16.1 17.7 0.00 0.00 0.00 32 1011.0
20260505194039 14 14 14.5 17.7 0.00 0.00 0.00 31 1011.1
20260505193537 13 349 14.5 17.7 0.00 0.00 0.00 33 1011.2
20260505193034 13 321 8.0 12.9 0.00 0.00 0.00 33 1011.4
20260505192532 13 333 9.7 14.5 0.00 0.00 0.00 33 1011.5
20260505192030 13 269 14.5 20.9 0.00 0.00 0.00 33 1011.7
20260505191528 13 304 3.2 4.8 0.00 0.00 0.00 33 1011.7
20260505191026 13 303 6.4 11.3 0.00 0.00 0.00 32 1011.9
20260505190520 13 259 11.3 14.5 0.00 0.00 0.00 32 1011.8
20260505190016 13 282 4.8 4.8 0.00 0.00 0.00 32 1011.9
20260505185513 13 336 6.4 11.3 0.00 0.00 0.00 33 1011.9
20260505185009 13 288 11.3 14.5 0.00 0.00 0.00 33 1011.8
20260505184506 13 239 9.7 14.5 0.00 0.00 0.00 31 1012.0
20260505184003 13 290 14.5 17.7 0.00 0.00 0.00 32 1012.2
20260505183500 13 276 8.0 12.9 0.00 0.00 0.00 32 1011.9
20260505182956 12 322 12.9 14.5 0.00 0.00 0.00 33 1011.9
20260505182453 13 346 4.8 9.7 0.00 0.00 0.00 31 1011.9
20260505181949 12 247 9.7 14.5 0.00 0.00 0.00 31 1012.0
20260505181447 13 291 6.4 9.7 0.00 0.00 0.00 31 1011.9
20260505180944 13 198 14.5 17.7 0.00 0.00 0.00 32 1012.0
20260505180440 13 280 9.7 11.3 0.00 0.00 0.00 32 1012.0
20260505175937 12 323 6.4 9.7 0.00 0.00 0.00 32 1011.9
20260505175433 12 218 9.7 11.3 0.00 0.00 0.00 31 1011.9
20260505174930 12 259 9.7 11.3 0.00 0.00 0.00 31 1012.1
20260505174427 12 289 6.4 11.3 0.00 0.00 0.00 32 1012.0
20260505173923 12 317 14.5 14.5 0.00 0.00 0.00 32 1012.1
20260505173420 12 303 14.5 16.1 0.00 0.00 0.00 32 1012.0
20260505172917 12 329 1.6 1.6 0.00 0.00 0.00 32 1012.2
20260505172415 11 315 3.2 4.8 0.00 0.00 0.00 33 1012.2
20260505171914 11 296 9.7 12.9 0.00 0.00 0.00 32 1012.1
20260505171411 12 316 17.7 17.7 0.00 0.00 0.00 33 1012.1
20260505170908 11 319 9.7 11.3 0.00 0.00 0.00 33 1012.3
20260505170405 11 336 14.5 17.7 0.00 0.00 0.00 33 1012.1
20260505165900 11 296 14.5 17.7 0.00 0.00 0.00 33 1011.7
20260505165356 12 287 9.7 12.9 0.00 0.00 0.00 33 1011.8
20260505164852 12 332 14.5 16.1 0.00 0.00 0.00 33 1012.0
20260505164348 12 12 6.4 9.7 0.00 0.00 0.00 31 1011.8
20260505163847 12 286 6.4 9.7 0.00 0.00 0.00 32 1012.0
20260505163346 11 317 9.7 12.9 0.00 0.00 0.00 32 1011.8
20260505162844 11 344 4.8 9.7 0.00 0.00 0.00 32 1011.8
20260505162339 11 315 8.0 9.7 0.00 0.00 0.00 33 1012.0
20260505161837 11 302 14.5 16.1 0.00 0.00 0.00 32 1012.0
20260505161334 11 328 9.7 14.5 0.00 0.00 0.00 32 1012.0
20260505160831 11 318 12.9 17.7 0.00 0.00 0.00 32 1011.9
20260505160329 11 303 6.4 9.7 0.00 0.00 0.00 32 1012.0
20260505153308 11 354 6.4 9.7 0.00 0.00 0.00 32 1011.5
20260505152805 11 316 3.2 6.4 0.00 0.00 0.00 32 1011.2
20260505152304 11 347 9.7 12.9 0.00 0.00 0.00 33 1011.5
20260505151755 11 311 9.7 11.3 0.00 0.00 0.00 32 1011.5
20260505151253 11 335 12.9 14.5 0.00 0.00 0.00 32 1011.4
20260505150750 11 327 6.4 6.4 0.00 0.00 0.00 32 1011.4
20260505150247 11 328 9.7 12.9 0.00 0.00 0.00 32 1011.4
20260505140217 10 342 6.4 9.7 0.00 0.00 0.00 40 1011.3
20260505130141 10 307 6.4 6.4 0.00 0.00 0.00 46 1011.9
20260505124630 9 323 3.2 4.8 0.00 0.00 0.00 51 1012.5
20260505124127 8 285 1.6 3.2 0.00 0.00 0.00 50 1012.4
20260505123623 8 294 6.4 6.4 0.00 0.00 0.00 51 1012.3
20260505123120 9 254 0.0 1.6 0.00 0.00 0.00 49 1012.1
20260505122617 9 270 3.2 4.8 0.00 0.00 0.00 49 1012.1
20260505122114 9 347 1.6 3.2 0.00 0.00 0.00 48 1012.0
20260505121610 9 317 0.0 0.0 0.00 0.00 0.00 48 1012.0
20260505121107 8 300 3.2 3.2 0.00 0.00 0.00 49 1011.8
20260505120603 8 326 1.6 1.6 0.00 0.00 0.00 49 1011.7
20260505120059 8 280 1.6 1.6 0.00 0.00 0.00 48 1011.7
20260505115554 8 304 1.6 1.6 0.00 0.00 0.00 48 1011.7
20260505115051 8 309 0.0 1.6 0.00 0.00 0.00 49 1011.5
20260505114548 8 321 0.0 0.0 0.00 0.00 0.00 49 1011.4
20260505114044 8 335 0.0 0.0 0.00 0.00 0.00 51 1011.1
20260505113541 8 350 1.6 1.6 0.00 0.00 0.00 51 1010.9
20260505113037 8 321 3.2 4.8 0.00 0.00 0.00 50 1010.9
20260505112529 8 328 1.6 1.6 0.00 0.00 0.00 50 1011.1
20260505112027 8 319 1.6 1.6 0.00 0.00 0.00 50 1011.0
20260505111525 8 299 3.2 4.8 0.00 0.00 0.00 50 1010.9
20260505111022 8 319 1.6 1.6 0.00 0.00 0.00 50 1010.5
20260505110519 8 330 1.6 1.6 0.00 0.00 0.00 50 1010.3
20260505101951 9 326 4.8 6.4 0.00 0.00 0.00 44 1009.4
20260505101449 9 351 6.4 9.7 0.00 0.00 0.00 44 1009.6
20260505100945 9 333 6.4 6.4 0.00 0.00 0.00 43 1009.3
20260505100443 9 319 9.7 11.3 0.00 0.00 0.00 43 1008.8
20260505095939 9 328 6.4 6.4 0.00 0.00 0.00 43 1008.8
20260505095436 9 352 6.4 6.4 0.00 0.00 0.00 42 1008.8
20260505094932 9 355 11.3 14.5 0.00 0.00 0.00 42 1009.2
20260505094429 10 350 4.8 4.8 0.00 0.00 0.00 42 1009.0
20260505093925 10 337 6.4 6.4 0.00 0.00 0.00 42 1009.2
20260505093422 10 7 6.4 9.7 0.00 0.00 0.00 42 1009.3
20260505092919 10 69 6.4 9.7 0.00 0.00 0.00 42 1009.9
20260505092417 10 333 12.9 16.1 0.00 0.00 0.00 41 1009.9
20260505091914 10 298 19.3 24.1 0.00 0.00 0.00 41 1010.0
20260505091412 10 351 8.0 9.7 0.00 0.00 0.00 41 1009.6
20260505090909 10 276 9.7 12.9 0.00 0.00 0.00 41 1009.5
20260505090408 10 346 9.7 12.9 0.00 0.00 0.00 43 1009.1
20260505085904 10 9 6.4 9.7 0.00 0.00 0.00 45 1009.1
20260505085402 10 320 9.7 12.9 0.00 0.00 0.00 45 1008.8
20260505084900 10 299 4.8 9.7 0.00 0.00 0.00 45 1008.6
20260505084358 10 357 9.7 12.9 0.00 0.00 0.00 46 1008.7
20260505083855 10 330 4.8 6.4 0.00 0.00 0.00 46 1008.3
20260505083353 10 336 11.3 14.5 0.00 0.00 0.00 46 1008.3
20260505082849 10 326 12.9 14.5 0.00 0.00 0.00 46 1008.8